Regional Weather Roundup
Issued by NWS

Home | Current Version | Previous Version | Text Only | Print | Product List | Glossary Off
Versions: 1 2 3 4 5 6 7 8 9 10 11 12 13 14 15 16 17 18 19 20 21 22 23 24 25 26 27 28 29 30 31 32 33 34 35 36 37 38 39 40 41 42 43 44 45 46 47 48 49 50

000
ASUS43 KOAX 170510
RWRNE

WEATHER ROUNDUP FOR NEBRASKA
NATIONAL WEATHER SERVICE OMAHA NE
1200 AM CDT TUE OCT 17 2017

NOTES: SATELLITE DATA IS BEING USED TO AUGMENT CLOUD COVER ABOVE
       12000 FEET.
       "FAIR" INDICATES FEW OR NO CLOUDS BELOW 12,000 FEET WITH NO
       SIGNIFICANT WEATHER AND/OR OBSTRUCTIONS TO VISIBILITY.


NEZ001>004-019>022-054>056-170600-
NEBRASKA PANHANDLE

CITY           SKY/WX    TMP DP  RH WIND       PRES   REMARKS
SCOTTSBLUFF    CLOUDY    37  27  67 N5        30.19S WCI  33
ALLIANCE       CLOUDY    31  25  78 W7        30.17S WCI  24
CHADRON        CLEAR     39  27  62 SW8       30.13F WCI  33
GORDON         FAIR      35  30  83 W3        30.14S
KIMBALL        CLOUDY    40  25  55 SW9       30.24S WCI  34
SIDNEY         CLOUDY    34  24  67 W6        30.21F WCI  29
$$

NEZ057>060-069>072-079>082-170600-
SOUTHWEST NEBRASKA

CITY           SKY/WX    TMP DP  RH WIND       PRES   REMARKS
NORTH PLATTE   CLEAR     40  35  83 CALM      30.12S
IMPERIAL       CLOUDY    48  29  47 NW7       30.15R
LEXINGTON      CLEAR     46  37  71 CALM      30.09F
MCCOOK         CLOUDY    53  39  59 SW8       30.10F
OGALLALA       CLEAR     43  33  67 W6        30.16S
$$

NEZ005>010-023>029-035>040-094-170600-
NORTH CENTRAL NEBRASKA

CITY           SKY/WX    TMP DP  RH WIND       PRES   REMARKS
VALENTINE      CLEAR     41  33  73 W7        30.10S
AINSWORTH      CLEAR     46  36  69 W6        30.09S
BROKEN BOW     CLEAR     45  36  70 CALM      30.07F
O`NEILL        CLEAR     45  42  88 CALM      30.05S
ORD            CLEAR     46  35  65 E3        30.06S
THEDFORD       CLEAR     43  33  65 W6        30.12S
$$

NEZ041-046>049-061>064-073>077-083>087-170600-
SOUTH CENTRAL NEBRASKA

CITY           SKY/WX    TMP DP  RH WIND       PRES   REMARKS
GRAND ISLAND   CLEAR     57  38  48 S13       30.09S
AURORA         CLEAR     55  38  53 S10       30.10S
HASTINGS       CLEAR     57  36  45 S9        30.11S
HEBRON         CLOUDY    58  39  50 S8        30.13F
HOLDREGE       PTCLDY    54  37  54 SW8       30.10S
KEARNEY        CLEAR     55  36  48 SW14      30.09F
YORK           PTCLDY    54  39  58 S9        30.11S
$$

NEZ011>018-030>034-042>045-170600-
NORTHEAST NEBRASKA

CITY           SKY/WX    TMP DP  RH WIND       PRES   REMARKS
NORFOLK        CLEAR     55  39  54 S15       30.05S
ALBION         PTCLDY    54  38  54 SE3       30.07F
BLAIR          CLEAR     58  41  53 S14       30.10S
COLUMBUS       PTCLDY    58  39  49 S10       30.09F
FREMONT        CLEAR     58  40  50 S8        30.10F
TEKAMAH        PTCLDY    56  32  40 S9        30.08F
WAYNE          PTCLDY    53  36  52 SW6       30.05F
$$

NEZ050>053-065>068-078-088>093-170600-
SOUTHEAST NEBRASKA

CITY           SKY/WX    TMP DP  RH WIND       PRES   REMARKS
LINCOLN        PTCLDY    58  40  51 S15       30.12F
OMAHA EPPLEY   PTCLDY    57  40  52 S10       30.12F
BEATRICE       PTCLDY    56  41  58 S9        30.15S
FALLS CITY     CLEAR     53  40  61 S9        30.17F
NEBRASKA CITY  CLEAR     53  41  64 S10       30.14F
PLATTSMOUTH    CLEAR     55  41  60 S12       30.13S
$$

NEZ044-045-051>053-067-170600-
OMAHA AREA

CITY           SKY/WX    TMP DP  RH WIND       PRES   REMARKS
OMAHA EPPLEY   PTCLDY    57  40  52 S10       30.12F
BLAIR          CLEAR     58  41  53 S14       30.10S
FREMONT        CLEAR     58  40  50 S8        30.10F
MILLARD        CLEAR     58  42  55 SE3       30.12F
OFFUTT AFB     CLEAR     49  41  73 SE6       30.12F
PLATTSMOUTH    CLEAR     55  41  60 S12       30.13S
WAHOO          FAIR      57  40  52 S9        30.10F
$$




USA.gov is the U.S. government's official web portal to all federal, state and local government web resources and services.